Regional Weather Roundup
Issued by NWS Northern Indiana

Home | Current Version | Previous Version | Text Only | Print | Product List | Glossary Off
Versions: 1 2 3 4 5 6 7 8 9 10 11 12 13 14 15 16 17 18 19 20 21 22 23 24 25 26 27 28 29 30 31 32 33 34 35 36 37 38 39 40 41 42 43 44 45 46 47 48 49 50

000
ASUS43 KIWX 310900
RWRIWX

KIWX WEATHER ROUNDUP
NATIONAL WEATHER SERVICE NORTHERN INDIANA
500 AM EDT THU JUL 31 2014

NOTE: "FAIR" INDICATES FEW OR NO CLOUDS BELOW 12,000 FEET WITH NO
SIGNIFICANT WEATHER AND/OR OBSTRUCTIONS TO VISIBILITY.

* THESE STATIONS ARE NOT UNDER NWS QUALITY CONTROL. THEY ALSO MAY NOT
  REPORT WEATHER SUCH AS PRECIPITATION OR FOG.

INZ001>027-311000-
NORTHERN INDIANA

CITY           SKY/WX    TMP DP  RH WIND       PRES   REMARKS
VALPARAISO     FOG       54  53  97 CALM      30.04S VSB 1/4
KNOX*          MOCLDY    51  49  95 CALM      30.03S VSB 1/4
SOUTH BEND     CLEAR     57  53  86 CALM      30.03F
GOSHEN         CLEAR     56  53  90 CALM      30.03S
MONTICELLO*    CLEAR     55  54  99 CALM      30.04S FOG
WARSAW*        PTCLDY    54  54 100 CALM      30.04S FOG
ANGOLA*        MOCLDY    52  52 100 CALM      30.03S VSB 1/2
FORT WAYNE     PTCLDY    57  55  93 SW3       30.04S
PERU/GRISSOM   CLEAR     56  56 100 S3        30.04S FOG

$$
INZ028>050-311000-
CENTRAL INDIANA

CITY           SKY/WX    TMP DP  RH WIND       PRES   REMARKS
LAFAYETTE      FOG       58  58 100 CALM      30.04F VSB 1/4
KOKOMO*        CLEAR     55  54  94 CALM      30.05S
MUNCIE*        CLEAR     60  57  89 CALM      30.05S
INDIANAPOLIS   PTCLDY    62  59  90 W7        30.05S

$$
MIZ043>046-050>051-056>058-064>065-071>073-077>080-311000-
SOUTHWEST LOWER MICHIGAN

CITY           SKY/WX    TMP DP  RH WIND       PRES   REMARKS
BATTLE CREEK   CLEAR     56  50  80 SW5       30.02S
BENTON HARBOR  CLEAR     53  52  96 CALM      30.01S FOG
COLDWATER*     CLEAR     54  53  97 CALM      30.02S FOG
HILLSDALE*     CLEAR     52  52  99 CALM      30.03R
HOLLAND        CLEAR     58  54  86 SW3       30.01S
GRAND RAPIDS   CLOUDY    56  52  86 SW3       30.01R
KALAMAZOO      CLEAR     54  49  83 S6        30.01F
STURGIS*       PTCLDY    52  52 100 CALM      30.03S FOG
THREE RIVERS*  FAIR      54  54 100 CALM      30.03S FOG

$$
OHZ001>008-015>018-024>025-311000-
NORTHWEST OHIO

CITY           SKY/WX    TMP DP  RH WIND       PRES   REMARKS
DEFIANCE       CLEAR     56  53  90 CALM      30.03S
FINDLAY        CLEAR     56  54  93 SW5       30.03R
TOLEDO EXPRESS CLEAR     52  51  97 CALM      30.01S
TOLEDO METCALF CLEAR     53  50  89 SW3       30.03R
LIMA           CLEAR     62  59  90 S3        30.04S FOG

$$
&&



USA.gov is the U.S. government's official web portal to all federal, state and local government web resources and services.